Powrót do katalogu

CZ-6A DEB

AktywnyPO
NORAD 55516·DEBRIS·🇨🇳 China

Wystrzelony Nov 11, 2022 z Taiyuan Satellite Launch Center

Loading…

Następne Przeloty (najbliższe 24 godziny)

TLE

ŚwieżeSource: Space-Track

Epoka: Sep 13, 2026, 04:58 UTC

1 55516U 22151XN  26256.20719833  .00080052  00000-0  34431-2 0  9999
2 55516  98.5804 350.0284 0024237 264.5419  95.3048 15.22042768199824

Śledź CZ-6A DEB w czasie rzeczywistym z AllMySat

Download on the App Store